LDE183 SAZM-SABE

Flight info

Callsign LDE183
Flight time 0h 40m
Altitude 27000
Route PULPA1G PULPA UW31 TENIL TENIL8R
Aircraft E140/M-SABDFGRW/S

Departure

Time 2026-04-26 21:57
Airport Ástor Piazzola International Airport (SAZM)

Arrival

Time 2026-04-26 22:37
Airport Aeroparque Jorge Newbery (SABE)
Time Latitude Longitude Altitude Speed Heading
2026-04-26 21:32 -37.93494 -57.58054 61 ft 0 kts 30°
2026-04-26 21:52 -37.93491 -57.58052 61 ft 2 kts 30°
2026-04-26 21:52 -37.93464 -57.58033 61 ft 6 kts 28°
2026-04-26 21:52 -37.93413 -57.58011 61 ft 8 kts 18°
2026-04-26 21:53 -37.93397 -57.57943 60 ft 11 kts 118°
2026-04-26 21:53 -37.93441 -57.57845 60 ft 14 kts 120°
2026-04-26 21:53 -37.93496 -57.57721 59 ft 17 kts 120°
2026-04-26 21:53 -37.93560 -57.57578 58 ft 20 kts 120°
2026-04-26 21:54 -37.93634 -57.57413 56 ft 22 kts 119°
2026-04-26 21:54 -37.93714 -57.57229 55 ft 25 kts 118°
2026-04-26 21:54 -37.93804 -57.57024 54 ft 27 kts 119°
2026-04-26 21:54 -37.93901 -57.56805 53 ft 29 kts 119°
2026-04-26 21:55 -37.93995 -57.56593 52 ft 12 kts 119°
2026-04-26 21:55 -37.94023 -57.56527 52 ft 4 kts 114°
2026-04-26 21:55 -37.94033 -57.56476 52 ft 7 kts 95°
2026-04-26 21:55 -37.93999 -57.56371 52 ft 12 kts 55°
2026-04-26 21:56 -37.93962 -57.56324 52 ft 10 kts 27°
2026-04-26 21:56 -37.93908 -57.56355 52 ft 12 kts 302°
2026-04-26 21:56 -37.93730 -57.56715 53 ft 94 kts 300°
2026-04-26 21:56 -37.93234 -57.57686 215 ft 154 kts 299°
2026-04-26 21:57 -37.92609 -57.58903 1000 ft 178 kts 297°
2026-04-26 21:57 -37.91869 -57.60410 1529 ft 225 kts 297°
2026-04-26 21:57 -37.90879 -57.61988 2845 ft 238 kts 304°
2026-04-26 21:57 -37.89492 -57.64064 4493 ft 238 kts 302°
2026-04-26 21:58 -37.88781 -57.65143 4994 ft 246 kts 302°
2026-04-26 21:58 -37.87662 -57.66829 5763 ft 257 kts 302°
2026-04-26 21:58 -37.86498 -57.68581 6619 ft 264 kts 302°
2026-04-26 21:58 -37.85320 -57.70359 7480 ft 268 kts 302°
2026-04-26 21:59 -37.84120 -57.72168 8341 ft 272 kts 302°
2026-04-26 21:59 -37.82549 -57.73600 9116 ft 295 kts 335°
2026-04-26 21:59 -37.80484 -57.73812 9886 ft 311 kts
2026-04-26 21:59 -37.78314 -57.73517 10617 ft 315 kts
2026-04-26 22:00 -37.76109 -57.73360 11133 ft 326 kts 359°
2026-04-26 22:00 -37.73018 -57.73171 11785 ft 342 kts 359°
2026-04-26 22:00 -37.71422 -57.73074 12098 ft 349 kts 359°
2026-04-26 22:00 -37.68975 -57.72926 12671 ft 355 kts 360°
2026-04-26 22:01 -37.66491 -57.72775 13357 ft 356 kts 359°
2026-04-26 22:01 -37.64021 -57.72627 14047 ft 356 kts 359°
2026-04-26 22:01 -37.61558 -57.72481 14669 ft 358 kts 359°
2026-04-26 22:01 -37.59052 -57.72330 15213 ft 362 kts 359°
2026-04-26 22:02 -37.56509 -57.72178 15765 ft 365 kts 359°
2026-04-26 22:02 -37.53977 -57.72024 16338 ft 367 kts 359°
2026-04-26 22:02 -37.51439 -57.71874 16859 ft 369 kts 359°
2026-04-26 22:02 -37.48861 -57.71721 17364 ft 372 kts 359°
2026-04-26 22:03 -37.46241 -57.71562 17886 ft 374 kts 360°
2026-04-26 22:03 -37.43653 -57.71410 18435 ft 374 kts 359°
2026-04-26 22:03 -37.41088 -57.71253 19149 ft 370 kts 360°
2026-04-26 22:03 -37.38503 -57.71097 19767 ft 368 kts 359°
2026-04-26 22:04 -37.35991 -57.71114 20349 ft 364 kts 353°
2026-04-26 22:04 -37.33437 -57.71307 20930 ft 364 kts 353°
2026-04-26 22:04 -37.30927 -57.71479 21497 ft 363 kts 353°
2026-04-26 22:04 -37.28411 -57.71656 22040 ft 363 kts 353°
2026-04-26 22:05 -37.25880 -57.71829 22584 ft 363 kts 353°
2026-04-26 22:05 -37.23383 -57.71999 23135 ft 361 kts 353°
2026-04-26 22:05 -37.20853 -57.72171 23692 ft 360 kts 353°
2026-04-26 22:05 -37.17530 -57.72399 24389 ft 360 kts 353°
2026-04-26 22:06 -37.15849 -57.72518 24744 ft 358 kts 353°
2026-04-26 22:06 -37.13350 -57.72683 25248 ft 356 kts 353°
2026-04-26 22:06 -37.10847 -57.72853 25716 ft 355 kts 352°
2026-04-26 22:06 -37.08405 -57.73020 26206 ft 352 kts 352°
2026-04-26 22:07 -37.05956 -57.73186 26630 ft 351 kts 352°
2026-04-26 22:07 -37.03481 -57.73357 26729 ft 361 kts 351°
2026-04-26 22:07 -37.00951 -57.73537 26738 ft 373 kts 352°
2026-04-26 22:07 -36.98309 -57.73717 26743 ft 385 kts 352°
2026-04-26 22:08 -36.95595 -57.73906 26739 ft 395 kts 352°
2026-04-26 22:08 -36.92818 -57.74096 26736 ft 404 kts 352°
2026-04-26 22:08 -36.89981 -57.74287 26722 ft 411 kts 352°
2026-04-26 22:08 -36.87072 -57.74484 26726 ft 416 kts 352°
2026-04-26 22:09 -36.84155 -57.74685 26728 ft 420 kts 352°
2026-04-26 22:09 -36.81229 -57.74886 26741 ft 423 kts 352°
2026-04-26 22:09 -36.78276 -57.75084 26742 ft 425 kts 352°
2026-04-26 22:09 -36.75303 -57.75286 26727 ft 427 kts 352°
2026-04-26 22:10 -36.72330 -57.75483 26728 ft 428 kts 352°
2026-04-26 22:10 -36.69370 -57.75687 26742 ft 428 kts 352°
2026-04-26 22:10 -36.66388 -57.75888 26731 ft 429 kts 352°
2026-04-26 22:10 -36.63438 -57.76086 26746 ft 429 kts 352°
2026-04-26 22:11 -36.60424 -57.76293 26748 ft 428 kts 351°
2026-04-26 22:11 -36.57460 -57.76492 26760 ft 428 kts 351°
2026-04-26 22:11 -36.54489 -57.76695 26758 ft 428 kts 351°
2026-04-26 22:11 -36.50483 -57.76965 26766 ft 427 kts 351°
2026-04-26 22:12 -36.48510 -57.77094 26776 ft 427 kts 351°
2026-04-26 22:12 -36.45525 -57.77296 26774 ft 427 kts 351°
2026-04-26 22:12 -36.42571 -57.77501 26760 ft 427 kts 351°
2026-04-26 22:12 -36.39615 -57.77696 26795 ft 426 kts 350°
2026-04-26 22:13 -36.36617 -57.77902 26778 ft 426 kts 351°
2026-04-26 22:13 -36.33661 -57.78098 26797 ft 425 kts 350°
2026-04-26 22:13 -36.30718 -57.78297 26806 ft 425 kts 350°
2026-04-26 22:13 -36.27762 -57.78489 26806 ft 424 kts 350°
2026-04-26 22:14 -36.24762 -57.78691 26806 ft 424 kts 350°
2026-04-26 22:14 -36.21817 -57.78891 26796 ft 424 kts 349°
2026-04-26 22:14 -36.18881 -57.79089 26807 ft 424 kts 350°
2026-04-26 22:14 -36.15913 -57.79288 26804 ft 424 kts 349°
2026-04-26 22:15 -36.12936 -57.79486 26814 ft 423 kts 350°
2026-04-26 22:15 -36.09975 -57.79684 26818 ft 423 kts 349°
2026-04-26 22:15 -36.07027 -57.79883 26812 ft 422 kts 349°
2026-04-26 22:15 -36.04065 -57.80079 26825 ft 422 kts 349°
2026-04-26 22:16 -36.01124 -57.80274 26820 ft 422 kts 349°
2026-04-26 22:16 -35.98195 -57.80468 26820 ft 422 kts 349°
2026-04-26 22:16 -35.95240 -57.80656 26831 ft 422 kts 348°
2026-04-26 22:16 -35.92316 -57.80861 26817 ft 422 kts 349°
2026-04-26 22:17 -35.89345 -57.81056 26829 ft 422 kts 348°
2026-04-26 22:17 -35.86395 -57.81252 26818 ft 423 kts 349°
2026-04-26 22:17 -35.83563 -57.81437 26814 ft 422 kts 348°
2026-04-26 22:17 -35.80519 -57.81639 26828 ft 422 kts 348°
2026-04-26 22:18 -35.77545 -57.81832 26781 ft 421 kts 347°
2026-04-26 22:18 -35.74600 -57.82032 26831 ft 421 kts 347°
2026-04-26 22:18 -35.71760 -57.82229 26634 ft 424 kts 347°
2026-04-26 22:18 -35.68878 -57.82408 26042 ft 409 kts 347°
2026-04-26 22:19 -35.66074 -57.82590 25503 ft 399 kts 347°
2026-04-26 22:19 -35.63306 -57.82778 25018 ft 394 kts 346°
2026-04-26 22:19 -35.60566 -57.82965 24428 ft 392 kts 346°
2026-04-26 22:19 -35.57834 -57.83151 23685 ft 396 kts 347°
2026-04-26 22:20 -35.55081 -57.83330 22861 ft 399 kts 348°
2026-04-26 22:20 -35.52323 -57.83585 22083 ft 397 kts 345°
2026-04-26 22:20 -35.49560 -57.83915 21346 ft 399 kts 346°
2026-04-26 22:20 -35.46806 -57.84230 20763 ft 394 kts 347°
2026-04-26 22:21 -35.44089 -57.84540 20185 ft 391 kts 347°
2026-04-26 22:21 -35.41404 -57.84847 19604 ft 387 kts 347°
2026-04-26 22:21 -35.38729 -57.85155 19025 ft 385 kts 347°
2026-04-26 22:21 -35.36080 -57.85458 18496 ft 381 kts 348°
2026-04-26 22:22 -35.33462 -57.85754 17979 ft 378 kts 348°
2026-04-26 22:22 -35.30867 -57.86048 17489 ft 374 kts 348°
2026-04-26 22:22 -35.28282 -57.86345 16976 ft 372 kts 348°
2026-04-26 22:22 -35.25718 -57.86641 16472 ft 368 kts 348°
2026-04-26 22:23 -35.23179 -57.86929 15979 ft 366 kts 348°
2026-04-26 22:23 -35.20633 -57.87216 15478 ft 363 kts 348°
2026-04-26 22:23 -35.18121 -57.87501 14988 ft 361 kts 348°
2026-04-26 22:23 -35.15628 -57.87787 14506 ft 358 kts 349°
2026-04-26 22:24 -35.13174 -57.88067 14024 ft 356 kts 349°
2026-04-26 22:24 -35.10701 -57.88346 13530 ft 354 kts 349°
2026-04-26 22:24 -35.08266 -57.88638 13031 ft 350 kts 346°
2026-04-26 22:24 -35.06072 -57.89694 12516 ft 332 kts 318°
2026-04-26 22:25 -35.04431 -57.91597 12060 ft 323 kts 308°
2026-04-26 22:25 -35.02823 -57.93495 11582 ft 324 kts 311°
2026-04-26 22:25 -35.01109 -57.95260 11084 ft 331 kts 322°
2026-04-26 22:25 -34.98081 -57.96282 10464 ft 344 kts 344°
2026-04-26 22:26 -34.96518 -57.96593 10203 ft 341 kts 345°
2026-04-26 22:26 -34.94152 -57.97055 9873 ft 337 kts 345°
2026-04-26 22:26 -34.91846 -57.97505 9549 ft 332 kts 345°
2026-04-26 22:26 -34.89605 -57.97928 8997 ft 319 kts 344°
2026-04-26 22:27 -34.87454 -57.98322 8468 ft 308 kts 345°
2026-04-26 22:27 -34.85432 -57.98747 7973 ft 293 kts 335°
2026-04-26 22:27 -34.83626 -57.99723 7513 ft 278 kts 327°
2026-04-26 22:27 -34.81949 -58.00780 7015 ft 265 kts 317°
2026-04-26 22:28 -34.80428 -58.02002 6538 ft 259 kts 316°
2026-04-26 22:28 -34.78978 -58.03276 6051 ft 254 kts 314°
2026-04-26 22:28 -34.77554 -58.04522 5558 ft 250 kts 315°
2026-04-26 22:28 -34.76195 -58.05786 5072 ft 242 kts 307°
2026-04-26 22:29 -34.75068 -58.07222 4594 ft 236 kts 303°
2026-04-26 22:29 -34.73951 -58.08670 4103 ft 233 kts 303°
2026-04-26 22:29 -34.72850 -58.10103 3616 ft 231 kts 303°
2026-04-26 22:29 -34.71762 -58.11510 3121 ft 229 kts 303°
2026-04-26 22:30 -34.70690 -58.12897 2924 ft 214 kts 304°
2026-04-26 22:30 -34.69778 -58.14189 2913 ft 194 kts 298°
2026-04-26 22:30 -34.68981 -58.15438 2905 ft 178 kts 293°
2026-04-26 22:30 -34.68298 -58.16641 2910 ft 167 kts 294°
2026-04-26 22:31 -34.67902 -58.17831 2916 ft 142 kts 264°
2026-04-26 22:31 -34.67836 -58.18998 3010 ft 138 kts 271°
2026-04-26 22:31 -34.67531 -58.20151 2830 ft 152 kts 283°
2026-04-26 22:31 -34.67039 -58.21356 2592 ft 165 kts 289°
2026-04-26 22:32 -34.66440 -58.22570 2342 ft 170 kts 291°
2026-04-26 22:32 -34.65802 -58.23785 2089 ft 172 kts 293°
2026-04-26 22:32 -34.65138 -58.25006 1841 ft 173 kts 294°
2026-04-26 22:32 -34.64457 -58.26240 1589 ft 180 kts 294°
2026-04-26 22:33 -34.63771 -58.27486 1582 ft 173 kts 296°
2026-04-26 22:33 -34.62483 -58.29772 1658 ft 149 kts 293°
2026-04-26 22:33 -34.61736 -58.31130 1576 ft 138 kts 292°
2026-04-26 22:34 -34.61387 -58.31750 1596 ft 127 kts 290°
2026-04-26 22:34 -34.60930 -58.32553 1574 ft 104 kts 289°
2026-04-26 22:34 -34.60540 -58.33260 1511 ft 103 kts 290°
2026-04-26 22:34 -34.60132 -58.34043 1213 ft 110 kts 290°
2026-04-26 22:35 -34.59700 -58.34803 1033 ft 109 kts 296°
2026-04-26 22:35 -34.59275 -58.35551 906 ft 105 kts 295°
2026-04-26 22:35 -34.58862 -58.36324 775 ft 113 kts 290°
2026-04-26 22:35 -34.58403 -58.37106 689 ft 113 kts 292°
2026-04-26 22:36 -34.57985 -58.37905 554 ft 111 kts 294°
2026-04-26 22:36 -34.57562 -58.38687 423 ft 111 kts 293°
2026-04-26 22:36 -34.57118 -58.39449 301 ft 107 kts 295°
2026-04-26 22:36 -34.56681 -58.40210 154 ft 112 kts 298°
2026-04-26 22:37 -34.56234 -58.41008 44 ft 115 kts 294°
2026-04-26 22:37 -34.55832 -58.41735 24 ft 75 kts 298°
2026-04-26 22:37 -34.55733 -58.41916 24 ft 5 kts 319°
2026-04-26 22:37 -34.55707 -58.41921 24 ft 2 kts 25°
2026-04-26 22:38 -34.55683 -58.41903 24 ft 0 kts 32°
2026-04-26 22:38 -34.55680 -58.41901 24 ft 0 kts 32°
2026-04-26 22:38 -34.55679 -58.41900 24 ft 1 kts 32°
2026-04-26 22:39 -34.55669 -58.41880 24 ft 4 kts 95°
2026-04-26 22:39 -34.55693 -58.41827 24 ft 9 kts 122°
2026-04-26 22:39 -34.55733 -58.41750 24 ft 10 kts 117°
2026-04-26 22:39 -34.55765 -58.41673 24 ft 11 kts 117°
2026-04-26 22:40 -34.55807 -58.41575 24 ft 14 kts 117°
2026-04-26 22:40 -34.55855 -58.41459 24 ft 16 kts 116°
2026-04-26 22:40 -34.55899 -58.41354 24 ft 8 kts 113°
2026-04-26 22:40 -34.55886 -58.41294 24 ft 4 kts 32°
2026-04-26 22:41 -34.55848 -58.41278 24 ft 5 kts 352°
2026-04-26 22:41 -34.55821 -58.41312 24 ft 5 kts 312°
2026-04-26 22:41 -34.55797 -58.41300 24 ft 2 kts 39°
2026-04-26 22:41 -34.55779 -58.41283 24 ft 0 kts 36°